* Astronomy

Members Login
Username 
 
Password 
    Remember Me  
Post Info TOPIC: 8TAF2C5


L

Posts: 131433
Date:
Meteoroid 2008 TS26
Permalink  
 


A small 1 metre sized asteroid, 2008 TS26, was discovered by the Mt. Lemmon Survey on the 9th October, 2008.
The asteroid made a close flyby of the Earth  on the same day.

MPEC 2008-T119

__________________


L

Posts: 131433
Date:
8TAF2C5
Permalink  
 


A magnitude 20.1 asteroid, 8TAF2C5, was discovered by the  Mt. Lemmon Survey on the 9th October 2008.

H=33.2

Ephemeris
  
Date UT * R.A. (J2000) Decl. Elong. V Motion
h "/min P.A.
2008 10 10 08 01 03 08.2 +22 08 57 164.6 23.9 1.22 295.0
2008 10 10 09 01 03 03.6 +22 09 27 164.6 24.0 1.14 295.0
2008 10 10 10 01 02 59.2 +22 09 55 164.6 24.1 1.07 295.0
2008 10 10 11 01 02 55.2 +22 10 21 164.7 24.2 1.00 294.9
2008 10 10 12 01 02 51.4 +22 10 45 164.7 24.2 0.94 294.9
2008 10 10 13 01 02 47.8 +22 11 08 164.7 24.3 0.88 294.9
2008 10 10 14 01 02 44.5 +22 11 30 164.7 24.3 0.83 294.8
2008 10 10 15 01 02 41.3 +22 11 50 164.7 24.4 0.78 294.8
2008 10 10 16 01 02 38.3 +22 12 09 164.7 24.5 0.74 294.7
2008 10 10 17 01 02 35.5 +22 12 27 164.7 24.5 0.70 294.7
2008 10 10 18 01 02 32.8 +22 12 44 164.7 24.6 0.66 294.6
2008 10 10 19 01 02 30.3 +22 13 00 164.7 24.6 0.63 294.5
2008 10 10 20 01 02 27.9 +22 13 16 164.7 24.7 0.60 294.5
2008 10 10 21 01 02 25.6 +22 13 30 164.7 24.8 0.57 294.4
2008 10 10 22 01 02 23.4 +22 13 44 164.8 24.8 0.54 294.3
2008 10 10 23 01 02 21.3 +22 13 57 164.8 24.9 0.52 294.2
2008 10 11 00 01 02 19.3 +22 14 09 164.8 24.9 0.49 294.2
2008 10 11 01 01 02 17.4 +22 14 21 164.8 25.0 0.47 294.1
2008 10 11 02 01 02 15.6 +22 14 32 164.8 25.0 0.45 294.0
2008 10 11 03 01 02 13.9 +22 14 43 164.8 25.0 0.43 293.9
2008 10 11 04 01 02 12.2 +22 14 53 164.8 25.1 0.41 293.8
2008 10 11 05 01 02 10.6 +22 15 03 164.8 25.1 0.39 293.7
2008 10 11 06 01 02 09.1 +22 15 12 164.8 25.2 0.38 293.6
2008 10 11 07 01 02 07.6 +22 15 21 164.8 25.2 0.36 293.4
2008 10 11 08 01 02 06.2 +22 15 30 164.8 25.3 0.35 293.3
Orbital elements:
Perigee 2008 Oct 9.146237 TT =  3:30:34 (JD 2454748.646237)
Epoch 2008 Oct 9.0 TT = JDT 2454748.5
q 12754.764km (2000.0) P Q
H 33.2 G 0.15 Peri. 306.2743 -0.2097674 -0.8712261
Node 54.6712 0.9762169 -0.2120389
e 7.016215 Incl. 147.0450 -0.0547546 -0.4427238


-- Edited by Blobrana at 11:05, 2008-10-10

__________________
Page 1 of 1  sorted by
Quick Reply

Please log in to post quick replies.



Create your own FREE Forum
Report Abuse
Powered by ActiveBoard